Regional Weather Roundup
Issued by NWS Bismarck, ND

Home | Current Version | Previous Version | Text Only | Print | Product List | Glossary On
Versions: 1 2 3 4 5 6 7 8 9 10 11 12 13 14 15 16 17 18 19 20 21 22 23 24 25 26 27 28 29 30 31 32 33 34 35 36 37 38 39 40 41 42 43 44 45 46 47 48 49 50
000
ASUS43 KBIS 302210
RWRBIS

NWR BROADCAST TEXT
NATIONAL WEATHER SERVICE BISMARCK ND
500 PM CDT SUN AUG 30 2015

NOTE: "FAIR" INDICATES FEW OR NO CLOUDS BELOW 12,000 FEET WITH NO
SIGNIFICANT WEATHER AND/OR OBSTRUCTIONS TO VISIBILITY.


CITY           SKY/WX    TMP DP  RH WIND       PRES   REMARKS
WILLISTON      MOSUNNY   85  44  23 N17       29.72R
MINOT          CLOUDY    88  55  32 W8        29.62F
MINOT AFB      CLOUDY    91  55  28 NW10      29.62F
BISMARCK       MOSUNNY   97  58  27 S10       29.65F HX  96
DICKINSON      NOT AVBL
GARRISON         N/A     90  53  28 NW9       29.65F
HETTINGER ARPT PTSUNNY   96  46  18 N14       29.74R HX  92
JAMESTOWN      PTSUNNY   84  68  58 S16G24    29.69F
CROSBY         FAIR      81  41  24 NW12      29.71F
HARVEY         FAIR      93  57  29 SW16G22   29.65R HX  92
HAZEN            N/A     91  54  27 NW10      29.66R
OAKES            N/A     86  81  84 S15       29.74S HX 102
RUGBY          FAIR      95  57  28 SW20G25   29.63R HX  94
STANLEY        FAIR      84  50  30 N22G30    29.70R
$$

CITY           SKY/WX    TMP DP  RH WIND       PRES   REMARKS
GRAND FORKS    PTSUNNY   86  68  54 S22G29    29.67S
GRAND FORKS AF MOSUNNY   86  70  58 S21G28    29.67F HX  91
DEVILS LAKE    PTSUNNY   88  66  48 SE17      29.63F HX  90
FARGO          MOSUNNY   87  67  51 S17G29    29.73F HX  90
CAVALIER       FAIR      88  72  58 SE12G17   29.63F HX  94
GRAFTON        FAIR      86  70  58 S16G24    29.66F HX  90
GWINNER        FAIR      90  66  45 S14       29.75S HX  92
LANGDON        FAIR      93  63  36 S22G29    29.65F HX  94
ROLLA            N/A     95  55  26 SW20G29   29.63S HX  93
WALHALLA       FAIR      86  72  62 MISG      29.62F HX  92
$$

CITY           SKY/WX    TMP DP  RH WIND       PRES   REMARKS
ABERDEEN       MOSUNNY   84  70  62 S18       29.75F
MOBRIDGE       MOSUNNY   96  58  27 S21G29    29.64F HX  95
BUFFALO          N/A     94  50  22 NW12G18   29.70F HX  91
RAPID CITY     MOSUNNY   97  52  21 S15       29.73F HX  94
GLASGOW        SUNNY     84  49  29 SW12      29.72S
SIDNEY         PTSUNNY   82  43  24 N14       29.72F
WOLF POINT     MOSUNNY   87  52  29 S5        29.71S
GLENDIVE       PTSUNNY   82  48  30 N13       29.77S
MILES CITY     PTSUNNY   85  50  29 E9        29.77F
BAKER          MOSUNNY   85  49  28 N12G23    29.79F
$$

CITY           SKY/WX    TMP DP  RH WIND       PRES   REMARKS
BILLINGS       PTSUNNY   81  48  31 E14       29.81F
GREAT FALLS    MOSUNNY   81  37  20 W18G25    29.74F
REGINA           N/A     70  59  68 W5        29.68R
ESTEVAN        PTSUNNY   81  45  28 NW20G26   29.67F
$$




USA.gov is the U.S. government's official web portal to all federal, state and local government web resources and services.